www.pogodaiklimat.ru

Погода и климат >> Архив погоды >> Иран >> Safi-Abad Dezful


ПОГОДА в Safi-Abad Dezful

  • Прогноз погоды в Safi-Abad Dezful
  • Монитор погоды в Safi-Abad Dezful
  • Климат города

АРХИВ ПОГОДЫ в Safi-Abad Dezful

Время (UTC), дата Ветер
(напр.,м/с)
 
Видим.   Явления Облачность Т
(С)
Тd
(С)
f
(%)
Тe
(С)
Тes
(С)
Комфортность P
(гПа)
Po
(гПа)
Тmin
(С)
Tmax
(С)
R
(мм)
R24
(мм)
S
(см)
18 12.07 В 6 10 км ясно +40.5 +7.5 14 +38 +38 очень
жарко
991.8 983.0
21 12.07 СВ 4 10 км ясно +34.8 +10.4 23 +34 +34 очень
жарко
992.4 983.6
00 13.07 СВ 3 10 км ясно +29.6 +13.5 37 +31 +31 жарко 992.4 983.5
03 13.07 С 3 10 км ясно +29.7 +13.8 38 +31 +33 жарко 993.1 984.2 +28.4
06 13.07 В 2 10 км ясно +44.0 +6.1 10 +41 +55 опасность
перегрева
993.5 984.7
09 13.07 ЮВ 5 10 км ясно +47.2 +3.6 7 +44 +55 опасность
перегрева
993.0 984.1
12 13.07 В 4 10 км ясно +49.4 +1.2 6 +46 +54 опасность
перегрева
991.3 982.3
15 13.07 ЮВ 3 10 км 4/0
[Cs]
+47.1 +8.1 10 +45 +45 опасность
перегрева
990.3 981.4 +49.4
18 13.07 В 8 6000 м пыльный позёмок 4/0
[Cs]
+39.7 +8.0 15 +38 +38 очень
жарко
992.4 983.6
21 13.07 В 7 8000 м мгла ясно +36.3 +8.2 18 +34 +34 очень
жарко
992.8 984.0
00 14.07 СВ 4 10 км ясно +31.8 +9.1 25 +31 +31 жарко 992.7 983.9
03 14.07 СВ 2 10 км ясно +27.7 +12.5 39 +29 +30 жарко 993.8 984.9 +26.0
06 14.07 ЮВ 2 10 км ясно +38.1 +11.9 21 +38 +51 опасность
солнечного
удара
994.6 985.6
09 14.07 В 10 10 км ясно +45.5 -0.9 6 +42 +43 опасность
перегрева
994.2 985.3
12 14.07 В 8 10 км ясно +45.8 +0.2 6 +42 +44 опасность
перегрева
993.5 984.6
15 14.07 В 6 10 км ясно +43.3 +3.4 9 +40 +40 очень
жарко
993.8 984.8 +46.1
18 14.07 В 5 10 км ясно +35.3 +3.6 14 +32 +32 жарко 995.5 986.5
21 14.07 СВ 2 10 км ясно +28.8 +8.2 27 +28 +28 жарко 995.4 986.4
00 15.07 С 3 10 км ясно +25.6 +9.4 36 +26 +26 жарко 995.4 986.3
03 15.07 С 3 10 км ясно +27.2 +8.8 31 +27 +28 жарко 996.4 987.3 +24.1
06 15.07 В 1 10 км ясно +40.2 +7.3 14 +38 +54 опасность
солнечного
удара
996.1 987.1
09 15.07 В 4 10 км ясно +43.8 +3.9 9 +41 +55 опасность
перегрева
995.6 986.6
12 15.07 В 6 10 км ясно +45.3 +3.5 8 +42 +47 опасность
перегрева
994.3 985.3
15 15.07 В 6 10 км ясно +43.1 +4.8 10 +40 +40 очень
жарко
993.7 984.7 +45.5
18 15.07 В 4 10 км ясно +34.8 +9.4 21 +33 +33 жарко 995.0 986.0
21 15.07 С 3 10 км ясно +29.0 +12.4 36 +30 +30 жарко 995.0 986.0
00 16.07 ЮВ 2 10 км ясно +26.7 +12.8 42 +28 +28 жарко 994.8 985.8
03 16.07 СВ 3 10 км ясно +27.1 +13.3 43 +29 +30 жарко 995.6 986.6 +26.1
06 16.07 ЮВ 2 10 км ясно +40.7 +9.0 15 +39 +52 опасность
солнечного
удара
995.0 986.1
09 16.07 СВ 5 10 км ясно +43.8 +4.9 10 +41 +52 опасность
перегрева
994.7 985.7
12 16.07 СВ 4 10 км ясно +45.2 +4.8 9 +42 +50 опасность
перегрева
992.8 983.7
15 16.07 В 4 10 км ясно +43.6 +8.2 12 +41 +42 опасность
перегрева
992.7 983.7 +45.7
18 16.07 В 4 10 км ясно +35.4 +11.6 24 +35 +35 очень
жарко
994.2 985.2
21 16.07 СВ 4 10 км ясно +34.5 +11.8 25 +34 +34 очень
жарко
994.1 985.2
00 17.07 В 5 10 км ясно +30.4 +12.5 33 +31 +31 жарко 993.6 984.6
03 17.07 СВ 3 10 км ясно +28.7 +13.9 40 +31 +32 жарко 994.3 985.3 +28.3
06 17.07 СВ 2 10 км ясно +38.6 +14.8 25 +40 +53 опасность
солнечного
удара
994.3 985.4
09 17.07 В 4 10 км ясно +43.6 +9.8 14 +42 +57 опасность
перегрева
993.4 984.5
12 17.07 ЮВ 4 10 км ясно +45.3 +7.9 11 +43 +51 опасность
перегрева
991.9 983.0
15 17.07 ЮВ 3 8000 м пыль ясно +44.1 +9.6 13 +42 +43 опасность
перегрева
991.4 982.4 +45.9
18 17.07 В 6 7000 м пыль ясно +36.9 +9.1 18 +35 +35 очень
жарко
993.2 984.3
21 17.07 СВ 2 8000 м пыль ясно +32.3 +10.0 25 +32 +32 жарко 993.8 984.8
00 18.07 СВ 2 8000 м пыль ясно +28.1 +12.8 39 +30 +30 жарко 993.8 984.9
03 18.07 штиль 0 8000 м пыль ясно +25.8 +14.6 50 +28 +30 жарко 994.7 985.6 +25.7
06 18.07 ЮВ 3 10 км ясно +36.1 +13.6 26 +37 +48 душно 994.7 985.7
09 18.07 ЮВ 5 10 км ясно +42.6 +12.0 17 +42 +53 опасность
перегрева
994.0 985.0
12 18.07 ЮВ 5 10 км 3/0
[Ac trans]
+45.7 +6.3 10 +43 +48 опасность
перегрева
992.7 983.7
15 18.07 В 3 10 км 3/0
[Ac trans]
+44.2 +9.2 13 +43 +43 опасность
перегрева
992.3 983.3 +45.9
18 18.07 В 3 10 км 5/1 1200 м
[Sc Ac trans]
+36.1 +10.5 21 +35 +35 очень
жарко
994.1 985.1
21 18.07 штиль 0 10 км 5/5 1200 м
[Sc]
+31.6 +12.9 32 +32 +32 жарко 994.6 985.6
00 19.07 В 1 10 км 5/0
[Ac trans]
+29.4 +15.4 43 +32 +32 душно 995.1 986.2
03 19.07 ЮВ 1 10 км 1/0
[Ac trans]
+27.6 +15.1 46 +30 +32 жарко 995.7 986.7 +27.6
06 19.07 ЮВ 5 7000 м мгла ясно +36.5 +14.3 27 +38 +45 очень
душно
996.6 987.6
09 19.07 ЮВ 4 8000 м мгла ясно +42.7 +14.7 20 +44 +58 опасность
перегрева
996.2 987.2
12 19.07 ЮВ 4 10 км ясно +46.8 +6.5 9 +44 +52 опасность
перегрева
993.8 984.8

 

Местоположение метеостанции Safi-Abad Dezful (Иран): широта 32.27 долгота 48.42 высота над уровнем моря 83 м.

В архиве по умолчанию представлена погода в Safi-Abad Dezful за последнюю неделю. Архивные данные за месяц целиком и за предыдущие месяцы, начиная с января 2011 года, Вы можете получить, выбрав интересующий диапазон дат из раскрывающегося списка и нажав кнопку "Ввод!".


*Определитесь, кто Вы:
робот инопланетянин человек

Внимание! Время в таблицах - всемирное. Для получения местного времени необходимо прибавить поправку, которая в Safi-Abad Dezful равна 3.5 ч.

Смотрите также архив погоды в соседних городах и на ближайших метеорологических станциях:

Погода в Masjed-Soleyman (Иран) (86 км)
Погода в Ahwaz (Иран) (107 км)
Погода в Amarah (Ирак) (127 км)
Погода в Khorram Abad (Иран) (135 км)
Погода в Ali Al-Gharbi (Ирак) (161 км)
Погода в Ali-Goodarz (Иран) (172 км)
Погода в Basrah (Ирак) (199 км)
Погода в Basrah Airport (Ирак) (204 км)
Погода в Omidieh (Иран) (205 км)
Погода в Abadan (Иран) (212 км)

Пояснения к столбцам:

Ветер - указаны скорость ветра в м/с - средняя за 10 мин, порывы в срок и между сроками (в фигурных скобках) и направление, откуда дует ветер: С - северный, СВ - северо-восточный, В - восточный, ЮВ - юго-восточный, Ю - южный, ЮЗ - юго-западный, З - западный, СЗ - северо-западный.
Видимость - горизонтальная дальность видимости в метрах или километрах. При видимости от 1 до 10 км при отсутствии осадков обычно наблюдается дымка, при ухудшении видимости до 1 км и менее - туман. В сухую погоду видимость может ухудшаться дымом, пылью или мглою.
Явления - указаны атмосферные явления, наблюдавшиеся в срок или в последний час перед сроком; фигурными скобками обозначены явления, наблюдавшиеся между сроками (за 1-3 часа до срока); квадратными скобками обозначены град или гололедные отложения с указанием их диаметра в мм.
Облачность - указаны через наклонную черту общая и нижняя облачность в баллах и высота нижней границы облаков в метрах; квадратными скобками обозначены формы облаков: Ci - перистые, Cs - перисто-слоистые, Cc - перисто-кучевые, Ac - высококучевые, As - высокослоистые, Sc - слоисто-кучевые, Ns - слоисто-дождевые, Cu - кучевые, Cb - кучево-дождевые. Подробнее классификацию облаков см. в Атласе облаков (PDF).
T - Температура воздуха - температура, измеренная на высоте 2 м над землей.
Td - Температура точки росы - температура, при понижении до которой содержащийся в воздухе водяной пар достигнет насыщения.
f - Относительная влажность воздуха - влажноcть воздуха, измеренная на высоте 2 м над землей.
Te - Эффективная температура - температура, которую ощущает одетый по сезону человек в тени. Характеристика душности погоды. При расчете учитывается влияние влажности воздуха и скорости ветра на теплоощущения человека.
Tes - Эффективная температура на солнце - температура, которую ощущает человек, с поправкой на солнечный нагрев. Характеристика знойности погоды. Зависит от высоты солнца над горизонтом, облачности и скорости ветра. Ночью, в пасмурную погоду, а также при ветре 12 м/с и более поправка равна нулю.
P - Атмосферное давление - приведенное к уровню моря атмосферное давление.
Po - Атмосферное давление - измеренное на уровне метеостанции атмосферное давление.
Tmin - Минимальная температура - минимум температуры воздуха на высоте 2 м над землей.
Tmax - Максимальная температура - максимум температуры воздуха на высоте 2 м над землей.
R - Количество осадков - Количество выпавших осадков за период времени, мм. При наведении курсора мыши на число - период времени, за который выпало указанное количество осадков.
R24 - Количество осадков - Количество выпавших осадков за 24 часа, мм.
S - Снежный покров - Высота снежного покрова, см. При наведении курсора мыши на число - состояние снежного покрова и степень покрытия местности в баллах.